Regional Weather Roundup
Issued by NWS

Home | Current Version | Previous Version | Graphics & Text | Print | Product List | Glossary On
Versions: 1 2 3 4 5 6 7 8 9 10 11 12 13 14 15 16 17 18 19 20 21 22 23 24 25 26 27 28 29 30 31 32 33 34 35 36 37 38 39 40 41 42 43 44 45 46 47 48 49 50
000
ASUS43 KIND 020309
RWRIN

WEATHER ROUNDUP FOR INDIANA
NATIONAL WEATHER SERVICE INDIANAPOLIS IN
1100 PM EDT FRI AUG 01 2014

NOTE: "FAIR" INDICATES FEW OR NO CLOUDS BELOW 12,000 FEET WITH NO
SIGNIFICANT WEATHER AND/OR OBSTRUCTIONS TO VISIBILITY.

* - STATION DOES NOT REPORT WEATHER SUCH AS PRECIPITATION OR FOG.

+ - STATION NOT QUALITY CONTROLLED BY THE NATIONAL WEATHER SERVICE.
    USE DATA WITH CAUTION...ESPECIALLY DEWPOINT AND RELATIVE
    HUMIDITY OBSERVATIONS.

INZ001>003-010>013-019-020-020400-
NORTHWEST INDIANA

CITY           SKY/WX    TMP DP  RH WIND       PRES   REMARKS
GARY /AIRPORT/ MOCLDY    63  60  91 CALM      30.12S
KNOX *+        MOCLDY    61  59  92 SE3       30.11S
LA PORTE +     MOCLDY    59  59  99 CALM      30.13R
MICHIGAN CITY+ PTCLDY    61  59  94 CALM      30.12R
MONTICELLO +   CLOUDY    64  63  96 CALM      30.11R
RENSSELAER +   MOCLDY    63  61  94 CALM      30.12R FOG
VALPARAISO     MOCLDY    59  58  96 CALM      30.12S

$$

LMZ046-743>745-020400-
SOUTHERN LAKE MICHIGAN

STATION/POSITION TIME  TEMP WIND        PRES
                       AIR  DIR/SP/G
                 (UTC) (F)  (DEG/KT/KT) (MB)
BURNS HARBOR     0300   69  200/  4/  6   N/A
MICHIGAN CITY    0300   69  210/  6/  8   N/A

$$

INZ004-005-014>016-021>024-020400-
NORTH CENTRAL INDIANA

CITY           SKY/WX    TMP DP  RH WIND       PRES   REMARKS
GOSHEN         PTCLDY    63  60  90 CALM      30.12R
LOGANSPORT +   CLOUDY    61  59  94 CALM      30.12R
PERU/GRISSOM   CLOUDY    67  67 100 N3        30.11S
ROCHESTER +    MOCLDY    66  61  82 CALM      30.13R
SOUTH BEND     PTCLDY    62  57  83 S3        30.13R
WARSAW +       PTCLDY    63  59  88 CALM      30.12S

$$

INZ006>009-017-018-025>027-020400-
NORTHEAST INDIANA

CITY           SKY/WX    TMP DP  RH WIND       PRES   REMARKS
ANGOLA *+      CLEAR     66  57  72 CALM      30.12S
AUBURN +       MOCLDY    64  59  82 CALM      30.11F
FORT WAYNE     MOCLDY    69  59  70 N5        30.10S
HUNTINGTON +   MOCLDY    66  58  77 CALM      30.11S

$$

INZ028-029-035-036-043>045-051>053-020400-
WEST CENTRAL INDIANA

CITY           SKY/WX    TMP DP  RH WIND       PRES   REMARKS
GREENCASTLE +  CLOUDY    64  59  82 CALM      30.10R
LAFAYETTE      CLOUDY    65  61  87 CALM      30.11R
TERRE HAUTE    LGT RAIN  67  62  84 SW3       30.11R

$$

INZ030>032-037>040-046>048-054>057-064-065-020400-
CENTRAL INDIANA

CITY           SKY/WX    TMP DP  RH WIND       PRES   REMARKS
CP ATTERBURY + CLOUDY    66  59  77 CALM      30.09S
FRANKFORT +    CLOUDY    64  64 100 CALM      30.12
GREENWOOD *+   MOCLDY    70  63  78 NE3       30.10
INDIANAPOLIS   CLOUDY    68  61  78 NE5       30.09R
-EAGLE CREEK   CLOUDY    68  59  73 CALM      30.09R
KOKOMO *+      CLOUDY    66  63  88 N6        30.10F
MARION +         N/A     63  60  90 CALM      30.11S
MT COMFORT *+  CLOUDY    66  66 100 E3        30.10S
SHELBYVILLE    MOCLDY    67  61  81 E5        30.09S
ZIONSVILLE +   CLOUDY    65  61  84 N3        30.11S

$$

INZ033-034-041-042-049-050-058-059-020400-
EAST CENTRAL INDIANA

CITY           SKY/WX    TMP DP  RH WIND       PRES   REMARKS
MUNCIE         CLOUDY    67  58  72 CALM      30.10S

$$

INZ060-061-067>069-081>083-085>088-020400-
SOUTHWEST INDIANA

CITY           SKY/WX    TMP DP  RH WIND       PRES   REMARKS
EVANSVILLE     PTCLDY    74  63  68 N10       30.07R
WASHINGTON +   MOCLDY    69  64  86 N12       30.08R

$$

INZ062-063-066-070>080-084-089>092-020400-
SOUTH CENTRAL AND SOUTHEAST INDIANA

CITY           SKY/WX    TMP DP  RH WIND       PRES   REMARKS
BLOOMINGTON    MOCLDY    64  62  93 CALM      30.09R FOG
SEYMOUR +      CLEAR     66  48  52 N8        30.07

$$




USA.gov is the U.S. government's official web portal to all federal, state and local government web resources and services.